STARLINK-11436, 62887

Orbit data source: Space-Track

STARLINK-11436, 62887 is a payload satellite owned by SpaceX/Seattle (US) in LEO that was launched on Tue, 04 Feb 2025 UTC via an FALCON 9 launch vehicle from the Air Force Eastern Test Range (AFETR). Payload-class satellites include a variety of spacecraft equipped with specific instruments for various scientific and technological missions. These include communications satellites like Starlink; space stations such as the ISS; scientific satellites like the Hubble; Earth observation satellites from companies like Planet Labs, Umbra, and HawkEye 360; GPS; miniature CubeSats for education and research; and military/defense satellites.

Loading next visibility...
Identifier
62887, 2025-024J
Orbit
LEO
Country
Flag of USUS
Related business
Manufacturer
SpaceX/Seattle
Mission
Operational Commercial Communications
Bus & Motor
STARLINK V2MD, Unknown motor
Mass
960 kg wet, ~910 kg dry
Launch date (UTC)
2025-02-04 (10 months ago)
Launch vehicle
FALCON 9
Launch site
Air Force Eastern Test Range (AFETR)
Object type
Payload
Rocket body
Debris
Shape & HBR
Box + 2 Pan, 18.1 m
Radar Cross Section
36.964 m², Large (>1 m²)

Expand to show TLE details & history
Last TLE update: 15 hours ago

TLE from 15 hours ago
0 STARLINK-11436
1 62887U 25024J   25348.97248521  .00161137  00000-0  12293-2 0  9992
2 62887  42.9984 332.0251 0000520 261.4533  98.6276 15.70951350 50140
Epoch: 2025-12-14T23:20Z
TLE epoch observation values (Epoch: 2025-12-14T23:20:22.722Z)
Latitude
0.00002°
Longitude
-101.94729°
Altitude
356 km
Speed
7.697 km/s
True Right ascension
22h 08m 06s
True Declination
0° 00' 00"
Sunlit
Object was in daylight at epoch
Visualization orbit readout
Latitude
Unknown
Longitude
Unknown
Altitude
Unknown
Speed
Unknown
Apparent Right ascension
Unknown
Apparent Declination
Unknown
Sunlit
N/A
Visualization observer readout
Local Sidereal Time
12:49:24
Azimuth
Unknown
Elevation
Unknown
Doppler factor
Unknown
Orbital elements
Apogee altitude
358.509 km
Perigee altitude
357.808 km
Semi-major axis
6,736.296 km
Eccentricity
0.00005
Inclination
42.9984°
RAAN
332.0251°
Arg. of periapsis
261.4533°
True anomaly
98.63349°
Mean anomaly
98.6276°
Eccentric anomaly
98.63055°
Mean motion
3.92565 °/min
Orbital period
91.7 mins
BSTAR
0.0012293
Loading maneuver chart data...
Computing Atmospheric mass density...
Loading historical data...
Loading historical data...
Loading historical data...
Loading historical data...
Loading historical data...
Loading historical data...
Loading historical data...

Documentation

Showing up to 5 results
|